Regional Weather Roundup
Issued by NWS State College, PA

Home | Current Version | Previous Version | Text Only | Print | Product List | Glossary On
Versions: 1 2 3 4 5 6 7 8 9 10 11 12 13 14 15 16 17 18 19 20 21 22 23 24 25 26 27 28 29 30 31 32 33 34 35 36 37 38 39 40 41 42 43 44 45 46 47 48 49 50
000
ASUS41 KCTP 270010
RWRCTP

REGIONAL WEATHER ROUNDUP
NATIONAL WEATHER SERVICE STATE COLLEGE PA
700 PM EST WED NOV 26 2014

Note: "fair" indicates few or no clouds below 12,000 feet with no
significant weather and/or obstructions to visibility.

* = STATION THAT DOES NOT REPORT PRECIPITATION /E.G. RAIN...SNOW...ETC/
    THUNDER OR FOG.

PAZ002>004-007>009-013>016-020>023-029>032-270100-
WESTERN PENNSYLVANIA

CITY           SKY/WX    TMP DP  RH WIND       PRES   REMARKS
ERIE           CLOUDY    35  28  75 E8        30.03S
MEADVILLE      CLOUDY    33  28  81 CALM      30.00S
FRANKLIN*      CLOUDY    30  28  93 CALM      30.00S
NEW CASTLE       N/A     33  30  89 CALM      30.03R
BEAVER COUNTY  CLOUDY    32  32 100 CALM      30.00S
BUTLER*        CLOUDY    32  30  93 CALM      30.02S
PITTSBURGH INT CLOUDY    33  31  92 NW6       30.01S FOG
PITTSBURGH     CLOUDY    32  29  88 NW3       29.99S FOG
INDIANA*       CLOUDY    32  32 100 NW5       30.02R FOG
LATROBE        CLOUDY    32  32 100 CALM      30.01F FOG
WASHINGTON CO* CLOUDY    32  28  86 N3        30.01S
$$

PAZ004>006-010>012-017>019-024>028-033>037-041-042-045-046-049>053-270100-
CENTRAL PENNSYLVANIA

CITY           SKY/WX    TMP DP  RH WIND       PRES   REMARKS
BRADFORD       LGT SNOW  28  24  85 NE6       29.94F FOG
DUBOIS         CLOUDY    30  29  96 N3        29.95S FOG
CLEARFIELD     LGT SNOW  31  30  96 CALM      29.97S FOG
JOHNSTOWN      LGT SNOW  30  28  92 NW6       29.92S FOG
ALTOONA        CLOUDY    31  30  96 N6        29.95S
STATE COLLEGE  LGT SNOW  30  30 100 NE6       29.97F FOG
WILLIAMSPORT   FLURRIES  33  30  88 W8        29.98F
SELINSGROVE    LGT SNOW  33  31  92 N5        29.98F FOG
FT INDIANTOWN  LGT RAIN  35  30  83 N10G21    29.92F
CAPITAL CITY   MIX PCPN  35  31  85 NW9       29.95F
HARRISBURG     FLURRIES  34  32  92 NW14      29.94F
YORK           CLOUDY    34  32  92 NW6       29.94F
$$

PAZ038>040-043-044-047-048-054-055-060>062-067>071-270100-
EASTERN PENNSYLVANIA

CITY           SKY/WX    TMP DP  RH WIND       PRES   REMARKS
SCRANTON       LGT SNOW  32  29  88 NW8       29.93F FOG
MOUNT POCONO   LGT SNOW  30  26  85 NW15G22   29.84S FOG
ALLENTOWN      LGT SNOW  34  31  88 NW8       29.90S FOG
QUAKERTOWN*    CLOUDY    32  32 100 NW7       29.89S
READING        MIX PCPN  34  32  92 NW6       29.91F
LANCASTER      LGT SNOW  33  31  92 NW8       29.92F FOG
COATESVILLE    LGT SNOW  32  32 100 NW13G18   29.89S
POTTSTOWN      LGT SNOW  33  32  96 NW8       29.90S FOG
BLUE BELL      CLOUDY    34  34 100 NW5       29.86F
DOYLESTOWN     LGT SNOW  32  32 100 NW8       29.86R FOG
WILLOW GROVE   NOT AVBL
NORTH PHILA    LGT RAIN  36  31  82 NW15G24   29.87S
PHILADELPHIA   LGT SNOW  36  33  89 NW17      29.87S FOG
$$


USA.gov is the U.S. government's official web portal to all federal, state and local government web resources and services.